Theta_e
332 337 330 321 314 316 311 314 321 316 319 330 331 328 325 328 323 315 343 347 347 345 349 351 359 358 357 354 352 350 350 349 347 347 345 345 344 344 345 345 345 345 346 350 352 350 347 346 351
323 325 322 320 312 305 311 317 316 320 327 331 333 331 328 323 333 335 337 345 345 344 344 348 358 358 354 353 351 350 349 347 347 346 344 344 346 346 347 347 347 347 349 352 355 356 356 355 355
327 324 311 312 310 305 307 316 317 325 330 329 328 334 332 327 335 336 341 342 342 342 345 349 358 357 353 351 350 350 348 346 346 344 344 345 345 344 346 346 348 348 353 354 353 353 352 352 352
318 311 310 306 308 314 316 318 321 325 329 330 331 327 334 338 337 339 341 342 341 342 346 356 358 355 351 350 349 348 346 346 345 344 344 344 344 344 346 346 350 350 353 352 352 351 351 350 349
315 308 302 305 310 316 316 322 326 325 327 328 332 327 329 337 340 340 341 342 339 341 349 354 357 353 351 350 349 348 346 345 344 344 344 343 344 345 347 349 352 352 351 350 350 349 348 347 347
306 307 299 301 309 314 315 321 324 324 327 329 328 327 328 338 337 338 340 338 338 343 347 351 355 353 352 349 349 347 346 345 344 345 344 343 344 346 347 351 352 351 350 349 348 347 347 348 348
303 301 299 305 306 311 316 320 318 324 327 328 332 324 329 334 337 338 338 337 337 344 347 349 348 348 350 349 348 347 346 347 346 346 346 345 345 346 349 353 352 350 349 348 347 347 346 348 347
305 304 302 308 305 306 319 320 321 319 328 335 335 324 324 332 338 339 336 333 337 342 349 346 344 343 341 341 348 347 344 344 346 345 345 345 344 346 348 351 353 349 348 347 347 346 346 348 348
308 298 301 304 307 308 316 316 322 329 329 331 334 332 334 336 335 333 331 332 334 340 344 344 343 340 337 337 343 346 344 343 344 343 345 342 333 333 339 346 351 349 348 346 345 345 346 347 345
304 300 303 313 315 309 316 320 323 325 327 330 332 336 336 337 333 326 326 328 330 335 341 342 341 340 334 338 338 336 337 335 335 334 333 332 331 334 333 344 351 350 347 345 346 347 347 346 337
306 304 310 312 315 319 320 321 324 321 320 327 327 331 334 335 327 326 326 325 326 332 339 339 339 340 333 333 334 334 334 333 334 332 330 333 336 331 331 338 341 343 346 338 340 336 330 328 330
303 309 310 309 312 313 318 323 322 322 323 330 331 333 332 329 326 326 325 324 325 327 334 336 336 337 331 330 331 333 335 335 337 340 338 339 337 339 335 330 335 340 336 337 333 325 326 326 325
304 307 310 313 310 311 321 320 319 321 328 330 331 331 329 327 326 325 325 325 326 328 332 335 336 338 333 330 331 332 334 338 339 341 340 342 341 340 337 334 334 337 339 334 327 328 327 325 325
308 308 309 310 308 308 309 318 322 325 328 327 329 327 328 327 324 323 323 324 325 329 334 335 336 340 344 341 337 336 336 334 340 339 340 339 341 339 337 337 335 332 333 328 327 323 323 328 324
308 302 306 307 307 309 311 316 317 326 327 326 327 328 330 330 328 326 326 326 330 331 336 335 337 339 342 345 340 335 335 338 335 342 342 342 342 339 338 336 334 334 333 331 327 324 326 326 325
304 304 298 302 306 309 307 300 318 326 325 324 327 330 331 331 330 332 331 332 335 334 337 338 343 340 341 343 342 342 341 339 341 344 341 345 343 341 339 337 333 335 330 333 327 322 324 322 325
300 294 296 302 306 307 305 307 320 324 325 324 326 329 331 331 333 333 337 336 338 338 338 335 341 342 342 342 346 343 343 342 343 341 342 343 344 344 337 337 333 330 332 330 329 326 321 326 322
295 295 297 299 305 305 302 313 317 323 324 324 329 329 330 331 330 337 338 341 341 341 341 340 343 342 342 342 345 344 344 341 340 343 341 341 344 343 339 332 330 333 331 326 331 326 325 326 325
302 300 299 302 306 304 301 309 312 318 322 323 322 328 328 331 334 337 338 341 345 343 342 343 341 344 342 342 341 341 338 342 342 341 345 343 341 341 332 330 328 331 329 329 328 329 324 322 327
302 299 299 303 306 302 302 303 312 313 322 322 323 327 328 331 335 335 334 335 340 345 345 346 344 343 343 344 341 342 340 344 343 342 342 343 337 334 332 331 330 331 330 331 329 325 323 323 323
299 298 299 300 305 306 304 301 309 314 316 324 327 328 329 332 334 333 333 334 335 340 348 350 349 345 343 345 345 342 342 340 338 337 337 339 339 337 334 333 331 331 331 327 326 325 324 320 323
295 305 306 304 302 295 303 292 302 311 312 316 325 326 327 332 334 334 332 333 336 338 347 350 351 345 344 344 343 341 337 333 336 338 339 338 339 338 336 334 333 333 332 330 329 328 325 325 321
300 306 303 304 301 299 301 294 298 310 308 312 314 319 324 331 333 333 333 336 339 341 343 349 350 346 344 346 342 343 338 339 336 338 337 338 338 338 338 335 334 330 330 329 330 329 328 325 322
307 304 302 302 297 292 298 297 297 304 308 312 315 318 321 329 333 335 337 338 339 341 345 349 350 348 347 346 347 341 338 339 337 334 333 337 338 337 336 336 333 332 331 329 329 330 329 326 322
302 296 291 290 289 290 300 299 300 309 313 314 314 316 321 321 325 331 335 337 336 339 344 348 348 346 347 346 346 346 343 341 336 335 335 334 333 335 336 335 334 332 332 330 330 328 329 327 326
300 298 294 288 289 292 302 298 303 313 316 315 317 316 320 321 325 326 334 335 335 333 336 341 344 344 344 344 344 348 345 342 339 339 337 335 333 335 337 337 335 335 335 333 332 330 330 330 329
301 297 304 297 296 294 297 304 308 312 313 313 312 317 317 317 318 322 324 329 329 332 330 327 325 331 343 343 344 343 341 341 338 334 337 336 337 337 335 335 334 335 335 333 330 330 329 329 329
303 306 297 298 291 291 298 300 302 308 308 310 312 313 314 317 320 324 327 332 331 330 331 328 326 327 340 343 340 340 343 342 339 337 330 329 330 332 334 335 332 333 333 332 329 326 328 325 327
301 300 300 299 298 293 294 298 309 309 308 311 311 314 315 315 317 322 324 331 330 326 325 325 324 338 339 340 339 339 338 334 330 328 327 329 329 330 334 336 334 332 329 328 326 326 327 326 326
306 302 302 297 296 299 300 297 311 311 312 315 314 317 317 318 317 317 323 327 326 323 322 325 332 330 327 332 336 332 330 329 327 327 328 332 333 336 334 333 332 332 331 328 327 325 325 323 321
Wind_Speed
5 7 3 2 6 5 4 1 11 13 15 22 20 16 16 8 5 8 10 18 19 16 11 11 12 13 14 17 14 13 13 12 12 12 12 12 12 13 12 12 11 11 11 10 11 11 7 6 5
2 4 2 1 5 2 5 10 11 13 20 21 22 20 18 20 20 20 13 17 17 14 9 7 12 13 16 15 14 13 12 11 11 11 11 11 12 12 11 11 10 10 9 9 11 11 10 8 10
1 5 2 5 3 3 4 14 12 14 17 15 12 13 7 11 12 7 19 18 16 12 9 9 12 13 14 14 13 13 12 11 11 11 11 11 10 9 9 10 9 10 9 13 12 12 11 11 11
1 2 5 2 8 11 1 10 17 22 18 17 17 12 8 17 11 15 21 20 16 12 9 11 14 14 14 13 13 12 11 11 11 10 10 9 9 8 8 8 8 10 12 11 11 10 9 9 10
2 2 2 5 11 9 8 17 21 22 18 20 20 13 9 15 23 22 22 19 18 12 7 9 14 14 14 13 12 11 11 10 10 10 9 7 8 7 8 9 11 11 11 11 10 9 8 7 8
3 2 2 5 11 7 5 17 21 20 20 20 22 18 10 13 16 17 20 19 17 15 9 8 13 14 12 12 12 10 10 10 10 9 8 7 6 8 9 10 11 11 10 9 8 6 6 9 11
5 0 6 11 7 11 9 15 13 17 22 14 18 13 8 10 12 14 22 19 17 15 11 8 6 10 13 12 11 10 10 9 8 7 6 5 6 7 9 9 10 9 7 7 5 6 9 10 12
3 1 6 14 6 7 12 13 16 11 11 19 21 8 11 9 14 15 20 19 19 16 15 11 8 7 6 6 11 10 9 9 7 7 6 4 3 2 8 8 8 8 6 4 5 7 8 8 9
5 1 10 10 10 7 14 18 8 16 16 8 5 15 11 8 11 17 19 18 15 14 15 14 13 10 8 7 8 9 10 9 8 7 6 3 2 3 5 7 7 7 5 2 2 4 7 9 6
6 3 7 7 6 6 13 22 18 19 18 19 14 11 10 8 7 12 15 15 15 16 16 15 14 13 11 9 7 6 6 5 5 5 6 4 4 5 5 6 6 6 4 2 2 5 8 8 3
7 10 14 16 8 13 19 16 7 15 13 17 18 13 11 9 8 11 10 12 12 16 15 16 15 13 12 9 7 4 4 4 4 7 6 5 4 4 4 3 3 2 4 1 2 4 2 3 3
5 11 11 2 5 5 14 15 12 14 10 19 15 15 11 8 9 9 9 9 9 8 16 13 10 13 8 7 7 7 5 5 5 6 7 3 1 2 3 3 3 3 2 4 2 2 3 7 7
6 10 3 7 4 9 9 15 12 13 19 18 14 12 9 8 9 8 9 9 9 9 10 8 9 9 9 7 6 5 5 6 5 5 5 2 2 2 3 4 4 4 4 2 3 2 4 5 4
6 9 6 7 1 4 5 14 16 17 21 20 16 11 9 10 10 8 9 8 8 9 9 8 8 8 8 5 6 5 5 4 5 4 5 5 4 3 2 2 3 3 4 3 3 2 2 4 3
8 8 4 5 4 4 5 8 15 22 21 20 14 12 9 10 12 11 13 12 13 11 11 10 9 8 6 4 4 4 5 4 3 4 7 6 5 3 1 2 1 3 3 5 3 2 2 4 3
10 5 2 4 4 5 8 6 10 20 22 19 18 15 13 10 11 10 9 12 14 13 13 11 10 8 6 4 3 3 3 3 4 5 5 6 6 5 1 2 2 4 1 4 3 1 3 1 1
4 0 5 7 9 5 6 5 14 17 20 18 17 14 13 10 8 9 11 11 14 14 12 11 12 12 9 7 4 3 4 4 4 3 4 4 5 5 5 3 2 3 2 2 3 1 1 2 3
4 5 7 5 9 8 6 15 18 18 19 14 11 8 12 10 13 8 11 14 10 15 11 9 9 11 11 6 3 3 3 1 3 4 5 6 4 5 5 4 2 2 2 1 2 4 1 2 4
7 9 9 8 9 7 8 12 13 15 15 19 17 18 12 12 9 9 8 10 11 16 14 11 9 12 8 3 4 2 3 3 3 2 6 6 5 6 5 3 2 2 3 4 5 3 3 2 2
11 9 11 8 9 6 8 6 10 12 23 23 21 17 14 10 9 9 8 8 8 13 13 11 9 11 8 7 4 3 3 3 3 4 6 6 7 7 5 4 3 2 4 3 5 5 2 2 1
7 9 9 5 4 4 3 3 8 6 9 17 21 20 16 19 15 12 10 9 9 9 10 10 10 11 7 8 4 2 3 3 1 2 3 6 8 7 7 6 5 5 3 2 3 4 5 4 3
6 8 7 5 0 5 7 5 5 8 10 8 17 14 14 16 15 14 14 9 9 8 8 9 10 11 9 8 7 6 5 5 5 5 2 4 6 7 7 7 6 5 3 3 2 4 4 3 5
9 7 8 10 6 6 5 4 9 15 10 8 11 11 15 19 19 16 16 14 7 9 9 8 9 9 7 7 8 7 6 4 1 4 7 6 6 7 7 7 7 6 4 4 4 3 5 4 3
7 6 8 8 2 2 9 8 7 7 10 8 8 10 12 18 18 18 15 9 8 9 10 10 10 10 9 8 8 8 7 4 4 4 5 4 3 4 6 6 6 6 5 5 5 5 5 5 5
6 2 4 4 4 7 9 4 9 7 15 14 12 11 12 10 12 15 16 13 10 12 9 8 7 4 5 6 6 6 5 6 7 5 3 3 3 4 7 7 6 5 7 7 6 6 6 6 4
10 9 6 7 3 7 5 5 7 6 8 7 13 11 9 9 10 10 15 12 10 16 12 10 8 1 3 4 6 7 7 5 4 4 3 0 2 3 6 6 6 7 7 6 6 4 5 6 6
13 7 13 2 4 3 2 9 8 7 7 5 7 10 10 9 13 12 11 13 18 17 17 13 7 6 9 7 7 7 4 4 5 3 4 2 3 3 4 4 6 6 7 7 6 5 6 6 7
8 7 2 3 5 5 3 3 8 7 7 4 12 13 13 11 14 11 12 16 17 21 14 11 15 11 8 6 5 4 5 5 6 5 3 4 3 4 7 6 6 5 5 5 6 6 6 6 7
4 5 1 6 5 5 2 5 10 3 4 8 8 14 12 10 11 13 9 10 17 21 19 14 7 6 7 7 7 6 5 7 5 3 0 3 4 5 7 6 5 4 4 5 5 6 6 6 8
9 7 5 6 8 2 5 7 3 12 8 10 8 10 8 8 5 7 12 13 14 14 11 7 5 3 1 2 3 4 6 6 4 1 3 5 6 5 6 4 4 4 3 3 4 5 5 6 6
Wind_Direction
201 206 188 292 60 74 227 161 84 98 73 74 73 71 68 63 91 133 120 114 119 121 123 122 115 117 103 97 95 93 90 86 81 76 70 65 65 63 61 58 51 42 40 37 30 44 45 43 42
279 269 204 120 85 71 285 99 86 83 86 85 90 85 62 82 81 118 106 118 120 124 113 115 120 111 108 105 105 102 97 92 94 90 82 78 72 66 62 60 58 56 49 42 52 58 48 47 38
202 240 92 125 153 233 224 111 109 112 93 84 77 55 70 103 92 88 121 126 116 113 114 132 121 114 108 109 110 110 109 107 101 94 90 84 75 68 60 56 57 64 55 65 59 57 51 51 48
279 350 311 143 212 232 6 123 97 103 101 106 117 68 76 99 97 131 129 120 112 111 120 137 128 123 120 123 124 120 115 111 108 102 97 92 85 70 56 59 63 74 68 70 67 55 46 39 43
269 286 284 274 212 241 195 117 106 101 99 99 99 108 100 98 120 128 131 128 123 118 125 129 133 129 129 129 128 125 121 117 112 114 110 104 89 71 63 62 74 73 70 67 61 53 34 20 39
295 138 335 258 229 154 109 121 116 113 112 107 103 113 117 123 131 142 132 126 127 131 131 137 133 128 134 135 135 128 124 126 130 134 129 122 106 78 78 76 79 75 68 66 56 41 18 357 9
195 172 253 276 237 92 106 86 101 123 131 118 127 119 152 151 156 147 127 128 131 130 129 128 125 140 143 143 141 138 138 136 131 141 156 160 121 104 97 96 93 85 75 68 46 19 3 356 358
172 171 279 302 127 118 113 93 99 93 122 131 137 142 170 186 168 140 135 138 138 144 144 152 148 144 145 149 149 146 144 145 154 173 183 170 109 122 120 102 111 111 100 72 31 8 346 344 352
251 312 276 261 126 170 116 95 91 94 77 90 90 140 158 161 154 134 136 141 146 154 155 155 158 163 163 153 161 154 158 163 178 181 203 174 196 228 161 140 142 130 129 112 43 325 316 318 336
171 201 255 275 106 136 119 114 110 105 102 95 93 114 144 176 160 143 142 151 159 161 162 163 168 168 164 162 150 165 176 183 193 195 202 202 217 218 165 157 168 163 176 184 266 277 287 291 308
248 232 258 272 91 135 120 120 114 119 122 133 139 149 176 194 153 143 148 156 163 168 159 172 170 166 164 152 167 174 179 184 203 208 197 230 221 188 148 166 163 217 204 229 224 307 314 304 294
238 252 267 139 66 105 140 138 136 130 147 135 143 167 178 148 141 148 155 151 136 133 155 171 159 156 154 159 173 178 171 196 197 196 206 174 177 163 187 170 178 211 205 226 213 262 322 20 8
258 261 300 101 42 85 132 142 145 123 126 133 150 161 161 153 158 151 135 141 131 115 135 140 125 128 162 178 179 172 178 196 187 167 189 142 100 96 122 178 191 208 174 202 194 44 5 356 352
293 301 275 96 168 81 86 126 118 142 137 141 159 168 169 163 160 137 134 145 131 130 135 143 132 125 132 156 173 136 154 177 137 160 174 138 117 101 59 331 34 79 150 159 111 88 9 12 319
289 305 213 151 212 160 128 106 128 148 144 146 162 168 161 177 161 161 164 163 152 153 145 149 149 145 134 127 130 136 154 151 173 139 161 145 123 110 19 5 164 59 112 119 114 20 18 38 9
301 256 101 254 223 153 111 206 153 145 145 156 169 172 166 196 171 169 175 162 157 156 152 154 156 153 157 168 175 162 155 132 151 143 152 148 137 139 142 3 113 61 159 121 124 139 320 41 171
293 253 264 285 206 160 136 144 154 149 154 166 173 174 172 189 171 179 172 163 163 161 156 166 153 162 165 188 194 142 103 130 132 156 148 151 165 175 151 103 94 51 82 139 155 246 177 318 308
201 265 270 239 208 188 189 157 169 165 166 151 112 191 180 194 180 209 168 170 155 161 160 173 151 160 166 168 167 142 140 162 151 155 164 183 163 164 137 110 98 29 63 232 170 202 236 232 292
210 223 242 249 210 170 224 162 182 174 132 139 172 201 177 191 184 168 155 155 156 163 161 178 154 162 156 149 156 156 187 173 204 172 169 170 129 108 117 124 129 249 210 207 211 175 210 303 297
253 254 260 279 194 141 211 209 178 173 160 167 183 188 182 174 165 164 159 143 147 161 175 168 151 157 159 152 169 165 171 186 184 166 158 165 137 143 147 170 192 227 241 238 187 170 178 232 229
253 240 249 247 199 177 172 320 183 199 160 174 178 188 182 175 174 169 171 172 166 161 162 165 147 162 164 158 141 118 78 45 68 204 168 168 164 170 170 182 197 215 170 198 212 186 179 205 277
265 268 281 287 63 179 152 245 214 189 191 175 177 184 180 180 177 175 177 179 177 173 152 151 152 154 161 175 149 153 172 182 211 188 164 185 178 186 179 189 205 211 196 194 222 218 207 171 241
242 271 280 276 221 153 230 116 259 177 195 182 172 172 162 178 184 182 183 181 168 147 156 148 141 147 170 170 157 173 195 201 242 136 158 186 195 199 195 188 197 203 192 204 210 244 244 210 197
236 271 285 271 141 209 224 157 249 205 185 179 190 181 177 180 184 187 179 148 145 147 142 150 145 166 167 184 179 183 200 218 142 153 161 187 203 219 209 202 198 200 203 207 218 231 238 230 224
234 183 292 351 352 218 234 188 220 197 180 177 180 186 183 158 149 146 156 152 151 153 139 131 99 128 181 196 192 183 197 192 178 172 183 212 216 202 214 192 193 209 199 210 215 219 229 223 212
233 186 177 197 199 259 280 240 270 168 125 168 187 190 146 140 147 150 140 138 132 92 71 73 66 288 277 256 232 200 202 155 164 190 207 290 326 283 218 205 207 201 207 211 218 217 222 223 231
250 218 221 193 335 357 244 329 39 130 137 119 98 117 123 88 66 65 55 63 89 67 80 80 8 324 288 232 236 230 199 132 145 47 55 29 11 305 294 272 239 223 211 209 221 227 227 223 237
171 226 223 354 197 228 158 77 297 303 177 173 109 105 105 97 87 101 101 115 119 119 131 180 215 210 244 219 269 276 150 122 102 98 58 27 341 307 297 278 273 257 247 236 223 252 249 255 255
288 261 186 152 152 195 101 238 219 2 41 27 83 121 125 126 137 147 137 124 131 145 163 192 172 186 189 194 207 200 181 108 94 96 348 293 283 269 265 278 281 295 275 274 281 272 258 250 261
238 224 182 136 287 145 116 259 217 132 104 86 121 123 130 133 153 132 123 125 139 158 130 159 139 190 297 328 318 152 97 98 115 253 268 271 259 277 253 261 271 279 267 258 248 262 278 279 278